DW6757 Weather Reports


Display with metric or nautical units.
time (UTC)temp
F
wind
direction
speed
MPH
gust
MPH
rain 1hr
in
rain 24hr
in
rain mn
in
humidity
%
barometer
mb
20260503232005 78 178 5.0 9.0 0.00 0.00 0.00 42 1017.9
20260503231526 78 177 5.0 11.0 0.00 0.00 0.00 40 1017.9
20260503231026 78 156 5.0 11.0 0.00 0.00 0.00 41 1017.9
20260503230505 78 139 5.0 8.0 0.00 0.00 0.00 42 1017.7
20260503230004 78 135 5.0 10.0 0.00 0.00 0.00 42 1017.9
20260503225504 78 141 5.0 10.0 0.00 0.00 0.00 44 1017.9
20260503225005 78 164 5.0 10.0 0.00 0.00 0.00 43 1017.9
20260503224504 78 173 4.0 8.0 0.00 0.00 0.00 44 1017.8
20260503224004 78 160 5.0 9.0 0.00 0.00 0.00 42 1018.0
20260503223504 78 158 5.0 9.0 0.00 0.00 0.00 42 1018.1
20260503223004 79 154 4.0 9.0 0.00 0.00 0.00 47 1018.1
20260503222505 78 168 4.0 9.0 0.00 0.00 0.00 44 1018.1
20260503222004 78 178 5.0 9.0 0.00 0.00 0.00 41 1018.2
20260503221505 78 163 5.0 9.0 0.00 0.00 0.00 42 1018.3
20260503221004 78 157 5.0 8.0 0.00 0.00 0.00 42 1018.5
20260503220505 78 169 5.0 9.0 0.00 0.00 0.00 44 1018.6
20260503220005 78 180 6.0 11.0 0.00 0.00 0.00 41 1018.6
20260503215505 79 193 6.0 11.0 0.00 0.00 0.00 43 1018.8
20260503215025 79 191 6.0 14.0 0.00 0.00 0.00 42 1018.9
20260503214504 78 168 6.0 14.0 0.00 0.00 0.00 43 1019.1
20260503214005 78 137 4.0 9.0 0.00 0.00 0.00 42 1019.0
20260503213504 78 133 3.0 8.0 0.00 0.00 0.00 40 1018.9
20260503213004 78 139 4.0 11.0 0.00 0.00 0.00 41 1018.9
20260503212504 78 161 5.0 11.0 0.00 0.00 0.00 39 1019.1
20260503212004 78 184 6.0 12.0 0.00 0.00 0.00 41 1019.3
20260503211504 78 196 7.0 14.0 0.00 0.00 0.00 42 1019.5
20260503211005 78 200 7.0 14.0 0.00 0.00 0.00 41 1019.6
20260503210505 78 192 6.0 14.0 0.00 0.00 0.00 42 1019.7
20260503210025 78 195 5.0 10.0 0.00 0.00 0.00 41 1019.7
20260503205504 78 195 6.0 10.0 0.00 0.00 0.00 42 1019.9
20260503205026 78 183 7.0 13.0 0.00 0.00 0.00 42 1019.9
20260503204526 78 183 7.0 13.0 0.00 0.00 0.00 42 1020.1
20260503204004 78 181 6.0 10.0 0.00 0.00 0.00 40 1020.1
20260503203504 79 177 4.0 10.0 0.00 0.00 0.00 42 1020.2
20260503203004 78 177 4.0 10.0 0.00 0.00 0.00 37 1020.1
20260503202505 78 168 6.0 10.0 0.00 0.00 0.00 37 1020.4
20260503202005 78 155 5.0 10.0 0.00 0.00 0.00 38 1020.6
20260503201504 78 142 5.0 10.0 0.00 0.00 0.00 36 1020.5
20260503201004 78 157 5.0 10.0 0.00 0.00 0.00 38 1020.4
20260503200526 78 169 4.0 10.0 0.00 0.00 0.00 38 1020.6
20260503200004 78 181 6.0 15.0 0.00 0.00 0.00 38 1020.8
20260503195505 78 176 6.0 15.0 0.00 0.00 0.00 40 1020.8
20260503195005 78 158 5.0 10.0 0.00 0.00 0.00 44 1020.8
20260503194525 78 156 4.0 10.0 0.00 0.00 0.00 44 1020.8
20260503194004 78 166 5.0 15.0 0.00 0.00 0.00 43 1020.9
20260503193505 78 156 5.0 15.0 0.00 0.00 0.00 40 1021.1
20260503193026 77 151 5.0 10.0 0.00 0.00 0.00 44 1021.1
20260503192525 78 150 4.0 9.0 0.00 0.00 0.00 45 1021.2
20260503192025 78 133 4.0 10.0 0.00 0.00 0.00 47 1021.2
20260503191505 77 136 5.0 12.0 0.00 0.00 0.00 40 1021.1
20260503191005 77 166 6.0 12.0 0.00 0.00 0.00 41 1021.3
20260503190504 77 183 5.0 11.0 0.00 0.00 0.00 46 1021.3
20260503190025 76 176 4.0 12.0 0.00 0.00 0.00 46 1021.4
20260503185504 76 181 6.0 18.0 0.00 0.00 0.00 44 1021.8
20260503185004 77 179 5.0 18.0 0.00 0.00 0.00 45 1021.8
20260503184504 77 168 4.0 12.0 0.00 0.00 0.00 48 1021.8
20260503184026 77 185 5.0 12.0 0.00 0.00 0.00 46 1021.9
20260503183505 76 205 4.0 11.0 0.00 0.00 0.00 46 1021.9
20260503183025 76 190 5.0 11.0 0.00 0.00 0.00 44 1021.9
20260503182505 76 165 5.0 11.0 0.00 0.00 0.00 45 1022.1
20260503182025 76 149 5.0 11.0 0.00 0.00 0.00 47 1022.1
20260503181506 76 167 5.0 11.0 0.00 0.00 0.00 46 1022.3
20260503181025 76 182 5.0 10.0 0.00 0.00 0.00 49 1022.5
20260503180504 76 192 5.0 11.0 0.00 0.00 0.00 46 1022.6
20260503180026 76 196 6.0 11.0 0.00 0.00 0.00 48 1022.7
20260503175505 75 194 6.0 13.0 0.00 0.00 0.00 47 1022.7
20260503175004 75 194 4.0 13.0 0.00 0.00 0.00 51 1022.9
20260503174504 75 187 4.0 11.0 0.00 0.00 0.00 50 1022.9
20260503174005 75 179 4.0 10.0 0.00 0.00 0.00 45 1023.0
20260503173504 75 170 5.0 13.0 0.00 0.00 0.00 49 1023.1
20260503173004 75 181 6.0 13.0 0.00 0.00 0.00 50 1023.2
20260503172504 75 180 5.0 11.0 0.00 0.00 0.00 47 1023.1
20260503172004 75 175 5.0 12.0 0.00 0.00 0.00 48 1023.2
20260503171504 75 164 4.0 12.0 0.00 0.00 0.00 47 1023.4
20260503171004 75 167 3.0 7.0 0.00 0.00 0.00 48 1023.4
20260503170504 74 182 3.0 11.0 0.00 0.00 0.00 50 1023.4
20260503151004 70 201 1.0 4.0 0.00 0.00 0.00 64 1024.1
20260503150525 70 193 2.0 4.0 0.00 0.00 0.00 65 1024.0
20260503131004 56 0 0.0 0.0 0.00 0.00 0.00 92 1023.4
20260503130504 56 0 0.0 0.0 0.00 0.00 0.00 91 1023.3
20260503110504 52 0 0.0 0.0 0.00 0.00 0.00 91 1022.1
20260503090504 54 0 0.0 0.0 0.00 0.00 0.00 89 1021.7
20260503081504 55 0 0.0 0.0 0.00 0.00 0.00 89 1021.9
20260503081004 55 0 0.0 0.0 0.00 0.00 0.00 89 1021.9
20260503080503 55 0 0.0 0.0 0.00 0.00 0.00 88 1021.8
20260503072525 56 0 0.0 0.0 0.00 0.00 0.00 87 1022.3
20260503072004 56 0 0.0 0.0 0.00 0.00 0.00 87 1022.4
20260503071504 56 0 0.0 0.0 0.00 0.00 0.00 87 1022.3
20260503071004 56 0 0.0 0.0 0.00 0.00 0.00 87 1022.3
20260503070525 56 0 0.0 0.0 0.00 0.00 0.00 86 1022.4
20260503055004 60 309 0.0 1.0 0.00 0.00 0.00 77 1022.4
20260503054504 60 309 0.0 1.0 0.00 0.00 0.00 77 1022.5
20260503054025 60 0 0.0 0.0 0.00 0.00 0.00 78 1022.5
20260503053503 60 0 0.0 0.0 0.00 0.00 0.00 78 1022.5
20260503053004 59 0 0.0 0.0 0.00 0.00 0.00 79 1022.4
20260503052503 59 0 0.0 0.0 0.00 0.00 0.00 79 1022.4
20260503052025 59 0 0.0 0.0 0.00 0.00 0.00 78 1022.4
20260503051504 59 0 0.0 0.0 0.00 0.00 0.00 76 1022.4
20260503051003 61 0 0.0 0.0 0.00 0.00 0.00 75 1022.3
20260503050504 61 0 0.0 0.0 0.00 0.00 0.00 74 1022.2
20260503050004 61 0 0.0 0.0 0.00 0.00 0.00 73 1022.2
20260503045504 62 0 0.0 0.0 0.00 0.00 0.00 70 1022.1
20260503045004 62 0 0.0 0.0 0.00 0.00 0.00 69 1022.0
20260503044504 61 0 0.0 0.0 0.00 0.00 0.00 69 1022.1
20260503044003 61 0 0.0 0.0 0.00 0.00 0.00 69 1022.2
20260503043525 61 0 0.0 0.0 0.00 0.00 0.00 69 1022.4
20260503043004 61 0 0.0 0.0 0.00 0.00 0.00 71 1022.4
20260503042504 61 0 0.0 0.0 0.00 0.00 0.00 72 1022.5
20260503042004 61 0 0.0 0.0 0.00 0.00 0.00 72 1022.4
20260503041504 61 0 0.0 0.0 0.00 0.00 0.00 70 1022.5
20260503041004 62 0 0.0 0.0 0.00 0.00 0.00 72 1022.4
20260503040503 62 0 0.0 0.0 0.00 0.00 0.00 71 1022.2
20260503040004 62 0 0.0 0.0 0.00 0.00 0.00 69 1022.2
20260503035504 62 0 0.0 0.0 0.00 0.00 0.00 67 1022.3
20260503035003 62 0 0.0 0.0 0.00 0.00 0.00 67 1022.2
20260503034503 62 0 0.0 0.0 0.00 0.00 0.00 67 1022.2
20260503034004 62 0 0.0 0.0 0.00 0.00 0.00 67 1022.1
20260503033504 62 0 0.0 0.0 0.00 0.00 0.00 67 1022.0
20260503033003 63 0 0.0 0.0 0.00 0.00 0.00 67 1022.0
20260503032504 63 0 0.0 0.0 0.00 0.00 0.00 67 1022.0
20260503032024 63 0 0.0 0.0 0.00 0.00 0.00 67 1022.0
20260503031504 63 0 0.0 0.0 0.00 0.00 0.00 66 1022.0
20260503031004 63 0 0.0 0.0 0.00 0.00 0.00 68 1022.0
20260503030504 63 0 0.0 0.0 0.00 0.00 0.00 67 1021.9
20260503030004 63 0 0.0 0.0 0.00 0.00 0.00 66 1021.7
20260503025504 63 0 0.0 0.0 0.00 0.00 0.00 66 1021.8
20260503025004 64 0 0.0 0.0 0.00 0.00 0.00 66 1021.8
20260503024524 64 0 0.0 0.0 0.00 0.00 0.00 65 1021.7
20260503024003 64 0 0.0 0.0 0.00 0.00 0.00 65 1021.7
20260503023503 64 0 0.0 0.0 0.00 0.00 0.00 64 1021.6
20260503023003 64 0 0.0 0.0 0.00 0.00 0.00 64 1021.5
20260503022503 64 0 0.0 0.0 0.00 0.00 0.00 62 1021.5
20260503022025 65 0 0.0 0.0 0.00 0.00 0.00 62 1021.4
20260503021524 65 0 0.0 0.0 0.00 0.00 0.00 61 1021.3
20260503021025 65 0 0.0 0.0 0.00 0.00 0.00 61 1021.1
20260503020503 65 0 0.0 0.0 0.00 0.00 0.00 62 1021.0
20260503020004 65 0 0.0 0.0 0.00 0.00 0.00 61 1021.0
20260503015503 66 0 0.0 0.0 0.00 0.00 0.00 60 1021.0
20260503015003 66 0 0.0 0.0 0.00 0.00 0.00 60 1021.0
20260503014503 66 0 0.0 0.0 0.00 0.00 0.00 59 1021.0
20260503014004 67 0 0.0 0.0 0.00 0.00 0.00 57 1021.0
20260503013503 67 0 0.0 0.0 0.00 0.00 0.00 57 1020.9
20260503013004 68 0 0.0 0.0 0.00 0.00 0.00 57 1021.0
20260503012503 68 0 0.0 0.0 0.00 0.00 0.00 56 1020.9
20260503012003 68 0 0.0 0.0 0.00 0.00 0.00 55 1020.8
20260503011504 69 0 0.0 0.0 0.00 0.00 0.00 55 1020.7
20260503011004 69 57 0.0 2.0 0.00 0.00 0.00 54 1020.7
20260503010503 69 61 1.0 4.0 0.00 0.00 0.00 54 1020.7
20260503010003 70 74 1.0 4.0 0.00 0.00 0.00 54 1020.6
20260503005504 70 68 1.0 3.0 0.00 0.00 0.00 54 1020.6
20260503005003 70 55 1.0 3.0 0.00 0.00 0.00 53 1020.5
20260503004503 71 52 2.0 4.0 0.00 0.00 0.00 52 1020.3
20260503004003 71 47 2.0 4.0 0.00 0.00 0.00 51 1020.3
20260503003504 71 55 2.0 6.0 0.00 0.00 0.00 51 1020.4
20260503003005 72 58 2.0 6.0 0.00 0.00 0.00 50 1020.5
20260503002505 72 50 2.0 4.0 0.00 0.00 0.00 50 1020.6
20260503002004 72 41 3.0 7.0 0.00 0.00 0.00 50 1020.7
20260503001504 72 36 4.0 8.0 0.00 0.00 0.00 47 1020.7
20260503001006 72 33 3.0 8.0 0.00 0.00 0.00 46 1020.6
20260503000505 73 36 3.0 9.0 0.00 0.00 0.00 46 1020.7
20260503000004 73 41 4.0 9.0 0.00 0.00 0.00 45 1020.6
20260502235505 73 36 3.0 8.0 0.00 0.00 0.00 48 1020.5
20260502235026 73 29 4.0 10.0 0.00 0.00 0.00 46 1020.5
20260502234505 73 38 4.0 11.0 0.00 0.00 0.00 46 1020.4
20260502234026 73 42 3.0 11.0 0.00 0.00 0.00 47 1020.4
20260502233505 73 29 3.0 10.0 0.00 0.00 0.00 45 1020.4
20260502233005 73 32 4.0 10.0 0.00 0.00 0.00 43 1020.3
20260502232505 73 45 5.0 10.0 0.00 0.00 0.00 44 1020.4